www.lygtv.com.cn - /images/


[转到父目录]

2014年7月30日 9:46 64156 001.jpg
2014年7月30日 9:46 2384 0e7256cde5c34f138d173d72aaad641b.gif
2014年7月30日 9:46 135068 1(1).jpg
2014年7月30日 9:46 14105 201451619285149837.jpg
2014年7月30日 9:46 12144 201451619303817566.jpg
2014年7月30日 9:46 14884 20145161932036741.jpg
2014年7月30日 9:46 18487 20145161935530262.jpg
2014年7月30日 9:46 29770 201451619373823651.jpg
2014年7月30日 9:46 13089 20145161937639454.jpg
2014年7月30日 9:46 10802 201451619392020118.jpg
2014年7月30日 9:46 7359 201451619401990688.jpg
2014年7月30日 9:46 14596 201451619415718552.jpg
2014年7月30日 9:46 22016 201451619435214484.jpg
2014年7月30日 9:46 13581 201451619452072207.jpg
2014年7月30日 9:46 18090 20145161946777131.jpg
2014年7月30日 9:46 13408 20145161947182844.jpg
2014年7月30日 9:46 5865 20145161948920488.jpg
2014年7月30日 9:46 26833 201451619494872531.jpg
2014年7月30日 9:46 18329 201451619502364578.jpg
2014年7月30日 9:46 15684 201451619513734716.jpg
2014年7月30日 9:46 29938 201451619533061908.jpg
2014年7月30日 9:46 133765 201452520481888322.jpg
2014年7月30日 9:46 89590 201452520483013458.jpg
2014年7月30日 9:46 100516 201452520512539497.jpg
2014年7月30日 9:46 157767 201452520513896780.jpg
2014年7月30日 9:46 117132 201452520515640125.jpg
2014年7月30日 9:46 118860 201452520521052126.jpg
2014年7月30日 9:46 134434 201452520523347199.jpg
2014年7月30日 9:46 129651 201452520524939025.jpg
2014年7月30日 9:46 131863 201452520532578613.jpg
2014年7月30日 9:46 115842 201452520534122371.jpg
2014年7月30日 9:46 135343 20145252053478805.jpg
2014年7月30日 9:46 115975 201452520535586053.jpg
2014年7月30日 9:46 70773 201452520552584390.jpg
2014年7月30日 9:46 111002 201452520555959085.jpg
2014年7月30日 9:46 161625 20145252055632488.jpg
2014年7月30日 9:46 86162 201452520561858993.jpg
2014年7月30日 9:46 86064 201452520563041419.jpg
2014年7月30日 9:46 90368 201452520564450088.jpg
2014年7月30日 9:46 125579 201452520572074797.jpg
2014年7月30日 9:46 241159 201452520583791566.jpg
2014年7月30日 9:46 150665 201452520592548092.jpg
2014年7月30日 9:46 122398 201452521323776130.jpg
2014年7月30日 9:46 46738 20145820484241908.jpg
2014年7月30日 9:46 31458 20145820551143406.jpg
2014年7月30日 9:46 36374 20145820564768496.jpg
2014年7月30日 9:46 37009 2014582103192711.jpg
2014年7月30日 9:46 29301 20145821123340114.jpg
2014年7月30日 9:46 41145 20145821224352369.jpg
2014年7月30日 9:46 27948 20145821294745388.jpg
2014年7月30日 9:46 23564 20145821364249281.jpg
2014年7月30日 9:46 22695 2014582143612759.jpg
2014年7月30日 9:46 24726 20145821513627062.jpg
2014年7月30日 9:46 22472 20145821594418332.jpg
2014年7月30日 9:46 39004 2014591913074536.jpg
2014年7月30日 9:46 23072 2014591919816520.jpg
2014年7月30日 9:46 55654 20145919561087163.jpg
2014年7月30日 9:46 30024 20145920145282329.jpg
2014年7月30日 9:46 51024 2014592036644441.jpg
2014年7月30日 9:46 46491 20145920451178307.jpg
2014年7月30日 9:46 2384 2a88e4c0ccc245d9a04a3923b4cb91a7.gif
2014年7月30日 9:46 14561 a.jpg
2014年7月30日 9:46 3328 about.png
2018年6月28日 11:23 <目录> Album
2016年4月23日 15:56 29117 banner wenzi.png
2014年7月30日 9:46 207405 bannerb-g.jpg
2016年4月27日 22:44 60744 bannerbg.jpg
2016年4月29日 21:41 15774 bannerwenzi.png
2014年7月30日 9:46 14794 bg.jpg
2014年7月30日 9:46 2384 c62190636cd14596bf5863f346b522eb.gif
2014年7月30日 9:46 1910 closebox.png
2014年7月30日 9:46 4038 com.png
2014年7月30日 9:46 36413 dn.png
2014年7月30日 9:46 2384 ecdb1959639147f696173688c7f5866a.gif
2014年8月1日 18:09 16107 ewm.jpg
2018年6月28日 11:23 <目录> fileTypeImages
2014年7月30日 11:32 4023 flsm.png
2014年7月30日 11:32 3317 hr.png
2014年8月14日 18:38 11191 jion.png
2014年7月30日 9:46 70 jt.gif
2017年10月18日 22:16 8718 l
2017年10月28日 12:49 6482 logo.jpg
2014年7月30日 9:46 15028 menubg.jpg
2014年7月30日 9:46 15767 more.jpg
2014年7月30日 9:46 14744 more01.jpg
2014年7月30日 9:46 652 nbg.png
2014年7月30日 9:46 1071 nbg_1.png
2014年7月30日 9:46 3856 news.png
2014年7月30日 9:46 17244 nopic.gif
2014年7月30日 9:46 14177 q.jpg
2018年6月28日 11:23 <目录> qq
2014年7月30日 11:33 3362 RDWT.png
2014年7月30日 9:46 4521 s.png
2014年7月30日 9:46 43 spacer.gif
2014年8月14日 18:59 33727 td.jpg
2014年7月30日 9:46 11104 xyy.jpg
2014年7月30日 9:46 39626 y01.jpg
2014年8月1日 16:40 38440 y02.jpg
2014年7月30日 9:46 38812 y03.jpg
2014年7月30日 9:46 37540 y04.jpg
2014年7月30日 9:46 26804 ypzs.jpg
2014年7月30日 9:46 4595 ypzs.png
2014年7月30日 9:46 134 zoom-caption-fill.png
2014年7月30日 9:46 310 zoom-caption-l.png
2014年7月30日 9:46 290 zoom-caption-r.png
2014年7月30日 9:46 310 zoom-shadow1.png
2014年7月30日 9:46 164 zoom-shadow2.png
2014年7月30日 9:46 368 zoom-shadow3.png
2014年7月30日 9:46 178 zoom-shadow4.png
2014年7月30日 9:46 180 zoom-shadow5.png
2014年7月30日 9:46 428 zoom-shadow6.png
2014年7月30日 9:46 186 zoom-shadow7.png
2014年7月30日 9:46 426 zoom-shadow8.png
2014年7月30日 9:46 1882 zoom-spin-1.png